Wind_Speed
15 17 17 17 14 15 17 21 26 25 22 23 18 17 16 13 15 13 11 11 11 11
15 17 18 17 16 15 15 17 25 25 24 24 21 19 18 17 16 16 13 10 10 11
16 15 16 17 18 16 16 18 19 22 23 24 22 20 20 19 18 19 17 15 15 15
12 15 15 18 18 18 18 20 22 22 22 21 20 21 24 22 21 22 19 18 17 15
20 15 15 16 17 19 22 23 25 25 25 25 25 23 28 31 28 23 23 19 19 17
24 19 18 13 13 20 24 29 28 29 29 28 26 27 27 26 27 23 25 23 21 21
15 15 19 20 20 22 20 26 33 32 32 30 28 27 26 24 29 28 27 27 24 22
13 11 12 15 16 23 27 28 24 34 36 33 32 31 29 29 27 32 30 30 27 26
14 13 12 12 13 19 23 27 31 29 32 39 37 33 32 31 31 31 33 32 29 28
16 13 12 14 16 17 17 25 28 33 32 33 36 37 33 32 32 30 31 33 32 31
21 21 19 19 18 19 21 20 22 27 31 36 38 38 38 34 34 31 31 32 33 32
21 24 26 27 25 22 22 25 26 24 25 27 34 36 37 35 35 38 35 34 34 32
28 28 30 28 28 27 27 28 28 29 30 27 28 29 36 37 37 39 40 37 35 34
36 37 37 33 31 32 32 30 28 30 29 30 29 29 28 34 36 37 35 36 36 36
Wind_Direction
242 239 236 233 235 233 233 223 217 221 223 223 231 233 241 253 254 261 263 259 263 271
245 242 239 238 236 236 230 226 222 224 230 226 232 236 242 254 252 252 255 251 253 261
257 255 247 241 240 235 227 220 218 223 231 235 238 241 245 250 249 248 253 249 249 252
276 259 254 247 247 241 234 229 230 232 235 236 242 249 252 253 254 247 249 245 245 243
268 262 255 263 256 249 242 236 236 237 240 244 250 258 254 260 252 248 243 245 245 244
269 272 278 267 266 256 252 245 240 241 242 242 248 255 258 250 238 253 254 246 247 252
302 290 275 263 256 264 265 255 244 247 248 248 251 253 253 252 248 255 253 249 248 256
314 305 296 279 261 258 259 262 260 251 251 253 253 251 251 250 260 252 253 250 253 251
315 294 296 291 284 257 252 256 256 252 255 252 253 254 252 250 254 252 255 246 249 247
320 321 327 301 287 283 269 257 258 258 258 260 256 253 253 253 253 248 249 248 247 247
303 305 306 310 310 290 281 281 272 265 263 262 262 257 253 251 255 253 249 248 248 250
285 286 293 296 296 294 288 281 275 277 276 276 267 263 264 260 250 251 249 244 244 247
281 284 288 288 286 285 284 284 283 279 274 277 277 272 263 260 259 249 247 247 246 246
281 283 283 280 278 282 285 287 273 274 279 275 274 274 275 265 258 258 248 247 252 250
Height
1532 1532 1533 1535 1537 1538 1540 1543 1545 1547 1550 1552 1554 1555 1557 1557 1557 1559 1560 1561 1560 1560
1530 1530 1530 1533 1535 1536 1538 1540 1543 1545 1547 1550 1552 1553 1554 1555 1555 1557 1558 1558 1558 1558
1529 1529 1529 1531 1532 1534 1536 1538 1540 1542 1544 1547 1548 1550 1551 1551 1553 1554 1555 1556 1555 1555
1527 1526 1527 1528 1530 1532 1534 1536 1537 1539 1541 1543 1544 1546 1547 1548 1549 1549 1551 1552 1552 1553
1524 1522 1523 1526 1528 1530 1529 1530 1532 1534 1536 1538 1539 1541 1542 1542 1544 1545 1546 1548 1548 1549
1517 1513 1522 1522 1520 1522 1524 1524 1525 1526 1527 1530 1532 1535 1536 1535 1537 1539 1541 1543 1544 1545
1516 1515 1517 1520 1520 1519 1518 1517 1517 1519 1521 1523 1525 1527 1530 1531 1531 1532 1534 1537 1538 1540
1515 1514 1513 1513 1513 1513 1512 1512 1512 1513 1515 1516 1518 1519 1521 1524 1525 1526 1527 1529 1532 1534
1511 1511 1510 1509 1507 1507 1506 1505 1505 1506 1507 1508 1509 1511 1514 1517 1518 1519 1520 1522 1525 1527
1508 1507 1506 1505 1504 1502 1501 1500 1498 1499 1500 1500 1500 1503 1505 1508 1510 1511 1512 1515 1517 1519
1504 1502 1502 1501 1499 1498 1496 1494 1493 1492 1491 1491 1491 1492 1493 1498 1501 1502 1504 1506 1508 1511
1498 1496 1495 1493 1492 1492 1490 1489 1487 1485 1485 1483 1482 1483 1483 1486 1490 1491 1494 1496 1499 1502
1490 1488 1486 1485 1484 1483 1482 1480 1479 1477 1476 1475 1474 1474 1475 1476 1477 1479 1483 1487 1490 1494
1481 1479 1477 1475 1474 1473 1471 1469 1469 1468 1467 1467 1466 1465 1465 1467 1466 1467 1470 1475 1481 1486